Find Rassvet-3 No. 14

NORAD ID: 68373 Int'l Des: 2026-061 Owner: B1440 Country: RU Constellation: Rassvet operational
LEOCIRCULARPOLAR

Live Position

Loading 3D Globe...

About Rassvet-3 No. 14

Description loading...

Upcoming Passes

Passes for default location (London). Set your location on the main map for personalized predictions.

Altitude History

Loading altitude history...

Two-Line Element Set

1 68373U 26061P 26130.50344803 .00108003 29491-5 36650-3 0 9996
2 68373 82.2972 54.5620 0012700 226.2714 133.7507 15.89624438 7592
Epoch: May 10, 2026 • Age: 8 hours

Current Status

Altitude 309.7 km
Velocity 7.73 km/s
Sub-Earth Point 43.82°N, 55.02°E
Launch Date Mar 23, 2026
Age 0.1 years
Type other

Technical Details

Classification Payload
Mass 370.00 kg
Dry Mass 370.00 kg
Total Mass 370.00 kg
Length 4.00 m
Diameter 1.00 m
Span 10.00 m
Shape Box+1 pan
Manufacturer B1440
Bus Type Rassvet-2
Phase Status In Orbit
Owner/State B1440/RU

Most Searched